Spokane, WA
on Wednesday, January 16, 2013

Wednesday
Previous Day Next Day
Daily Summary
 ActualAverageRecord
Temperature
Mean Temperature °F 30°F  
Max Temperature 29°F 34°F 51°F (2011)
Min Temperature 12°F 25°F -30°F (1888)
Degree Days
Heating Degree Days 44 35  
Month to date heating degree days 660 584  
Since 1 July heating degree days 3085 3418  
Cooling Degree Days 0 0  
Month to date cooling degree days 0 0  
Year to date cooling degree days 0 0  
Moisture
Dew Point 20°F   
Average Humidity 92    
Maximum Humidity 100    
Minimum Humidity 84    
Precipitation
Precipitation T in 0.06 in 0.66 in (1908)
Month to date precipitation 1.05 1.01  
Year to date precipitation 1.05 1.01  
Snow
Snow T in 0.40 in 5.60 in (1982)
Month to date snowfall 11.8 7.1  
Since 1 July snowfall 35.8 29.2  
Snow Depth 2.00 in   
Wind
Wind Speed 1 mph   
Max Wind Speed 6 mph   
Max Gust Speed 7 mph   
Visibility 1 miles   
Events Fog   

Key: T is trace of precipitation, MM is missing value
Source: NWS Daily Summary
Time(PST)TemperatureDew PointHumidity Pressure Visibility Wind DirectionWind SpeedGust SpeedPrecipitationEvents Conditions
12:06 AM 23.0°F 21.2°F 93% 30.49 in 0.1 miles Calm Calm - N/A Fog Light Freezing Fog
12:53 AM 24.1°F 21.9°F 91% 30.57 in 0.1 miles East 3.5 mph - N/A Fog Light Freezing Fog
1:53 AM 24.1°F 21.0°F 88% 30.58 in 0.1 miles Calm Calm - 0.00 in Fog Light Freezing Fog
2:53 AM 21.9°F 19.9°F 92% 30.60 in 0.1 miles Calm Calm - N/A Fog Light Freezing Fog
3:27 AM 19.4°F 17.6°F 93% 30.50 in 0.5 miles Calm Calm - N/A Fog Light Freezing Fog
3:53 AM 21.0°F 19.0°F 92% 30.59 in 0.5 miles Calm Calm - N/A Fog Light Freezing Fog
4:13 AM 21.2°F 19.4°F 93% 30.50 in 0.1 miles NE 4.6 mph - N/A Fog Light Freezing Fog
4:53 AM 21.9°F 19.9°F 92% 30.60 in 0.1 miles ENE 3.5 mph - N/A Fog Light Freezing Fog
5:30 AM 23.0°F 21.2°F 93% 30.50 in 0.5 miles Calm Calm - N/A Fog Light Freezing Fog
5:43 AM 23.0°F 21.2°F 93% 30.50 in 1.2 miles ENE 3.5 mph - N/A   Overcast
5:53 AM 24.1°F 21.0°F 88% 30.58 in 1.2 miles Calm Calm - N/A   Overcast
6:53 AM 21.0°F 19.0°F 92% 30.59 in 0.5 miles ENE 4.6 mph - N/A Fog Light Freezing Fog
7:47 AM 21.2°F 17.6°F 86% 30.52 in 0.1 miles NNE 3.5 mph - N/A Fog Light Freezing Fog
7:53 AM 21.0°F 18.0°F 88% 30.61 in 0.1 miles Calm Calm - N/A Fog Light Freezing Fog
8:53 AM 21.0°F 18.0°F 88% 30.63 in 0.2 miles Calm Calm - N/A Fog Light Freezing Fog
9:08 AM 21.2°F 19.4°F 93% 30.53 in 0.2 miles Calm Calm - N/A Fog Light Freezing Fog
9:40 AM 21.2°F 19.4°F 93% 30.53 in 0.1 miles Calm Calm - N/A Fog Light Freezing Fog
9:53 AM 21.9°F 19.0°F 89% 30.63 in 0.1 miles Calm Calm - N/A Fog Light Freezing Fog
10:53 AM 24.8°F 23.0°F 93% 30.52 in 0.1 miles Calm Calm - N/A Fog Light Freezing Fog
11:48 AM 26.6°F 24.8°F 93% 30.51 in 0.2 miles Calm Calm - N/A Fog Light Freezing Fog
11:53 AM 26.6°F 24.8°F 93% 30.50 in 0.2 miles Calm Calm - N/A Fog Light Freezing Fog
12:38 PM 26.6°F 23.0°F 86% 30.49 in 0.2 miles Calm Calm - N/A Fog Light Freezing Fog
12:53 PM 28.0°F 24.1°F 85% 30.58 in 0.2 miles NNE 3.5 mph - N/A Fog Light Freezing Fog
1:06 PM 28.4°F 24.8°F 86% 30.49 in 0.2 miles Calm Calm - N/A   Mostly Cloudy
1:18 PM 26.6°F 24.8°F 93% 30.49 in 1.5 miles NNE 3.5 mph - N/A   Mostly Cloudy
1:53 PM 28.0°F 24.1°F 85% 30.57 in 2.5 miles Calm Calm - N/A   Partly Cloudy
2:33 PM 28.4°F 24.8°F 86% 30.49 in 5.0 miles NE 3.5 mph - N/A   Partly Cloudy
2:53 PM 28.9°F 25.0°F 85% 30.58 in 7.0 miles Calm Calm - N/A Fog Patches of Fog
3:53 PM 28.9°F 25.0°F 85% 30.60 in 7.0 miles Calm Calm - N/A Fog Patches of Fog
4:53 PM 21.9°F 19.9°F 92% 30.59 in 7.0 miles Calm Calm - N/A Fog Patches of Fog
5:53 PM 24.1°F 21.0°F 88% 30.58 in 4.0 miles Calm Calm - N/A   Partly Cloudy
6:44 PM 19.4°F 17.6°F 93% 30.48 in 1.0 miles Calm Calm - N/A   Scattered Clouds
6:53 PM 19.0°F 17.1°F 92% 30.60 in 0.8 miles Calm Calm - N/A   Scattered Clouds
7:02 PM 17.6°F 14.0°F 86% 30.49 in 0.8 miles Calm Calm - N/A   Mostly Cloudy
7:53 PM 14.0°F 12.0°F 92% 30.60 in 0.8 miles Calm Calm - N/A   Mostly Cloudy
8:09 PM 17.6°F 12.2°F 79% 30.48 in 0.8 miles Calm Calm - N/A   Mostly Cloudy
8:53 PM 14.0°F 12.0°F 92% 30.61 in 0.2 miles Calm Calm - N/A Fog Light Freezing Fog
9:53 PM 14.0°F 12.0°F 92% 30.61 in 0.5 miles WSW 3.5 mph - N/A Fog Light Freezing Fog
10:53 PM 14.0°F 12.0°F 92% 30.60 in 0.2 miles Calm Calm - N/A Fog Light Freezing Fog
11:53 PM 12.9°F 10.0°F 88% 30.60 in 0.1 miles Calm Calm - N/A Fog Light Freezing Fog
Moon Phase
Jan. 16 Jan. 18 Jan. 26 Feb. 03 Feb. 10
Sunrise:07:32 AM (PST) Moon Rise:09:44 AM (PST)1/16
Sunset:04:27 PM (PST) Moon Set:10:54 PM (PST)1/16

Copyright © 2014 The Weather Underground, Inc.